Temperature
19 19 19 19 19 19 19 18 18 18 18 18 18 18 18 18 18 17 17 17 17 17 17 17 18 18 18 18 18 18 17 17 17 17 17 17 17 17 18 18 18 17 17
19 19 18 18 19 19 19 18 18 18 18 18 18 18 18 18 18 17 17 17 17 17 17 17 17 17 17 18 18 18 17 17 17 17 17 17 17 17 17 17 17 17 17
19 19 18 18 18 18 18 18 18 18 18 18 18 18 18 18 17 17 17 17 17 17 17 17 17 17 17 17 17 17 17 17 17 17 17 17 17 17 17 17 17 17 17
19 18 18 18 18 18 18 18 18 18 18 18 18 18 18 17 17 17 17 17 17 17 17 17 17 17 17 17 17 17 17 17 17 17 17 17 17 17 17 17 17 17 17
18 18 18 18 18 18 18 18 18 18 18 18 18 18 17 17 17 17 17 17 17 17 17 17 17 17 17 17 17 17 17 17 17 17 16 16 16 16 16 16 16 16 16
18 18 18 18 18 18 18 18 18 18 18 18 18 17 17 17 17 17 17 17 17 17 17 17 17 17 17 17 17 17 17 17 17 16 16 16 16 16 16 16 16 16 16
19 18 18 18 18 18 18 18 18 18 18 17 17 17 17 17 17 17 17 17 17 17 17 17 17 17 17 17 17 17 17 17 17 16 16 16 16 16 16 16 16 16 16
19 18 18 18 18 18 17 17 17 17 17 17 17 17 17 17 17 17 17 17 17 17 17 17 17 17 17 17 17 17 17 17 17 16 16 16 16 16 16 16 16 16 16
19 19 18 18 18 17 17 17 17 17 17 17 17 17 17 17 17 17 17 17 17 17 17 17 17 17 17 17 17 16 16 16 16 16 16 16 16 16 16 16 16 16 15
19 18 18 18 18 17 17 17 17 17 16 17 17 17 17 17 17 17 17 17 17 17 17 17 17 17 17 17 16 16 16 16 16 16 16 16 16 16 16 16 16 15 15
18 18 18 18 17 17 17 17 16 16 16 16 16 16 16 16 16 16 17 17 17 17 17 17 17 17 17 16 16 16 16 16 16 16 16 16 16 16 16 16 16 15 15
17 17 17 17 17 17 16 16 16 16 15 15 15 15 15 15 16 16 16 16 16 16 16 16 16 16 16 16 16 16 16 16 16 15 15 15 16 16 16 16 15 15 15
16 16 16 16 16 16 16 16 16 15 15 15 15 15 15 15 15 15 15 15 16 16 16 16 16 16 16 16 16 16 16 16 15 15 15 15 15 15 15 15 15 15 15
15 15 15 15 15 15 15 15 15 15 15 15 15 15 15 14 14 15 15 15 15 15 15 16 16 16 16 16 16 16 16 16 15 15 15 15 15 15 15 15 15 15 15
14 14 14 14 14 14 14 14 14 14 14 14 14 14 14 14 14 14 14 14 14 14 15 15 16 16 16 16 16 16 16 15 15 15 15 14 14 15 15 15 15 15 14
14 14 14 14 14 14 14 14 14 14 14 14 14 14 14 14 14 14 14 14 14 14 14 15 15 15 15 15 16 16 16 15 15 15 14 14 14 14 14 14 14 14 14
13 13 13 13 13 13 13 13 13 13 13 13 13 13 13 13 13 14 14 14 14 14 14 14 15 15 15 15 15 15 15 15 15 15 14 14 14 14 14 14 14 14 14
13 13 13 13 13 13 13 13 13 13 13 13 13 13 13 13 13 14 14 14 14 14 14 14 14 14 14 14 15 15 15 15 15 15 14 14 14 14 14 14 14 14 14
13 13 13 13 13 13 13 13 13 13 13 13 13 13 13 13 13 14 14 14 14 14 14 14 14 14 14 14 14 14 15 15 15 14 14 14 14 14 14 14 14 14 14
13 13 13 13 13 13 13 13 13 13 13 13 13 13 13 13 13 14 14 14 14 14 14 13 13 13 14 14 14 14 14 14 14 14 14 14 14 14 14 14 14 14 14
12 12 12 12 13 13 13 13 13 13 13 13 13 13 13 13 14 14 14 14 14 14 14 13 13 13 13 13 14 14 14 14 14 14 13 13 13 13 13 14 14 14 14
11 11 12 12 12 12 12 12 13 13 13 13 13 13 13 14 14 14 14 14 14 14 14 13 13 13 13 13 13 13 13 13 13 13 13 13 13 13 13 13 13 13 13
11 11 11 11 11 12 12 12 12 12 12 13 13 13 13 13 13 13 14 14 14 14 14 13 13 13 13 13 13 13 13 13 13 12 12 12 12 12 12 12 12 12 12
10 10 11 11 11 11 11 11 12 12 12 12 12 13 13 13 13 13 13 13 13 13 13 13 13 13 13 13 13 13 13 13 12 12 12 12 11 11 11 11 11 11 11
10 10 10 11 11 11 11 11 11 11 11 12 12 12 12 13 13 13 13 13 13 13 13 13 13 13 13 13 13 13 13 12 12 12 12 11 11 11 11 10 11 11 11
10 10 10 10 10 10 10 10 10 11 11 11 11 12 12 12 13 13 13 13 13 13 13 13 13 13 13 13 13 13 13 12 12 12 11 11 11 11 10 10 10 10 10
Wind_Speed
4 5 5 6 7 7 5 4 4 3 3 3 4 4 5 4 4 4 4 4 3 3 3 3 4 4 3 3 2 2 3 4 5 6 6 6 7 8 8 7 6 5 4
7 5 4 5 6 8 8 6 4 3 2 2 4 5 6 7 6 5 4 4 4 4 3 3 4 4 4 4 3 3 3 4 4 5 6 7 8 8 8 7 6 5 4
11 7 5 5 6 9 8 5 4 3 3 3 3 4 5 7 6 6 5 5 4 4 3 3 3 3 4 4 4 4 3 4 4 5 6 7 8 8 8 7 7 6 6
14 9 6 7 8 7 5 4 3 3 3 3 3 2 3 4 5 6 6 6 5 4 3 3 2 2 3 3 3 4 4 4 4 5 5 6 7 7 7 7 7 7 6
15 11 7 7 8 5 4 5 4 4 4 4 4 3 2 3 3 5 5 7 7 6 4 3 2 2 2 2 3 3 4 4 4 5 5 5 6 6 6 6 6 6 6
14 11 7 6 6 5 5 5 4 4 3 4 3 2 1 2 3 4 5 6 7 7 6 4 3 3 2 2 2 3 3 4 4 4 4 4 4 4 4 4 4 4 4
12 9 6 5 5 6 6 6 4 5 3 3 3 1 1 2 3 4 4 4 5 7 7 7 5 4 3 3 3 3 3 3 4 4 4 4 3 2 2 2 2 2 2
11 9 8 6 5 4 4 5 4 3 3 4 4 3 1 2 3 3 3 4 5 5 6 8 7 7 6 4 5 5 4 4 4 4 3 3 3 2 1 1 1 1 2
12 11 10 9 7 6 6 6 5 5 4 3 2 4 4 5 3 2 2 3 3 4 4 6 8 9 8 7 7 7 6 6 6 5 4 3 3 2 1 1 1 1 1
8 10 9 10 9 8 8 8 7 5 4 3 2 1 1 3 3 1 2 1 2 4 4 4 6 9 10 10 10 9 9 8 8 7 6 4 4 3 3 2 2 2 3
4 5 7 8 9 8 8 7 7 6 5 4 3 2 2 1 1 2 2 2 2 2 3 4 5 7 10 11 11 12 12 11 10 9 7 6 5 4 3 3 3 4 4
1 3 4 6 7 7 8 8 8 8 6 5 4 4 4 3 4 4 4 3 2 2 2 3 4 6 9 11 12 13 14 14 13 12 9 7 5 5 4 4 5 5 4
1 2 3 4 4 5 6 6 7 7 7 7 7 6 5 4 3 4 4 3 2 2 2 2 3 5 7 9 11 14 14 15 15 14 12 9 7 6 5 5 6 6 5
2 2 2 3 3 4 5 5 5 6 6 7 7 7 5 5 4 4 4 4 2 1 2 3 2 2 4 6 10 11 12 15 16 15 13 11 10 8 7 7 7 6 6
3 4 4 3 3 3 3 4 4 4 5 5 5 6 5 4 5 5 4 4 5 3 3 3 2 2 2 4 7 8 11 13 15 16 15 13 11 10 9 9 9 8 7
6 5 4 4 3 3 3 4 3 3 4 3 3 4 3 3 4 4 4 3 4 4 3 3 3 2 2 3 5 7 10 11 12 14 14 14 12 11 11 10 10 9 9
6 5 5 5 5 4 3 3 3 4 4 3 3 3 2 2 3 3 3 3 4 4 4 2 2 2 2 3 2 2 6 7 8 11 13 13 12 12 12 12 11 11 10
7 6 6 6 6 5 4 3 2 2 3 3 2 2 1 1 2 3 3 4 4 4 4 3 1 1 2 2 1 0 1 4 5 7 9 10 11 12 12 12 12 12 12
9 8 8 7 6 5 4 3 1 0 1 2 2 2 2 2 2 3 4 4 3 3 3 3 2 1 1 1 1 1 1 1 2 2 3 4 6 8 10 10 11 11 11
10 10 9 8 7 6 5 4 2 0 1 1 1 2 3 3 4 4 4 4 4 3 3 2 1 1 1 1 1 1 2 2 2 3 5 5 4 3 3 4 5 7 8
10 9 10 10 9 7 7 6 4 2 1 1 1 1 3 5 6 5 4 4 4 3 3 2 1 1 0 0 1 1 2 2 3 3 3 4 6 7 8 7 6 5 4
9 10 10 10 11 10 13 13 7 4 3 2 2 2 1 2 4 6 7 7 6 5 4 3 2 1 1 1 1 1 2 2 2 2 3 4 4 5 7 9 10 11 11
9 10 10 10 10 12 16 15 12 6 5 5 4 3 2 2 4 5 7 8 6 6 5 4 3 2 1 1 2 2 2 3 3 1 2 3 3 5 7 10 13 14 14
7 7 9 9 9 12 17 15 12 8 6 6 6 4 3 3 3 5 6 6 5 5 5 4 4 3 2 2 2 3 5 5 5 4 2 3 3 3 4 9 14 15 15
7 7 6 9 9 11 16 15 11 5 6 6 6 6 5 4 3 5 7 7 7 5 7 10 10 9 9 8 6 5 4 4 4 4 3 3 2 2 3 5 12 15 17
6 6 7 8 9 9 14 15 12 5 5 5 5 6 8 6 5 5 5 6 7 5 5 6 7 9 9 11 10 5 4 4 3 3 3 3 2 2 3 4 7 12 13
Wind_Direction
200 207 214 219 224 224 222 230 239 245 247 247 249 243 244 238 229 236 260 280 279 274 261 234 219 206 195 187 182 179 173 171 168 164 163 163 160 157 155 154 152 150 147
207 205 213 218 223 221 221 222 232 244 253 247 248 237 228 223 222 230 250 272 276 274 278 265 239 223 211 206 204 203 194 190 183 181 179 178 177 174 173 174 176 178 182
210 209 214 222 224 220 215 215 226 239 253 245 242 223 210 209 212 221 237 257 268 269 267 271 262 243 231 223 213 209 207 195 193 194 193 190 189 189 191 195 201 206 210
212 208 214 226 223 206 196 197 201 218 238 228 216 207 195 198 212 219 232 246 252 256 262 268 272 261 246 230 218 212 207 198 196 200 202 201 201 203 208 214 220 224 223
211 209 215 222 213 195 192 207 193 190 208 211 202 194 196 205 213 220 230 239 243 246 252 267 271 259 245 228 214 210 204 198 198 201 203 206 210 213 219 226 229 228 233
210 208 215 219 211 204 204 200 198 192 197 191 184 167 218 230 218 223 231 235 240 242 243 248 257 262 251 232 216 210 204 198 195 189 189 194 201 210 223 235 242 242 242
203 200 209 209 207 218 222 204 189 190 188 146 119 104 307 257 232 232 225 228 238 238 235 236 237 244 251 242 227 219 212 204 199 193 188 185 183 189 216 249 253 248 248
192 195 192 193 192 208 222 202 182 176 171 159 148 142 224 303 267 228 225 226 233 226 228 231 230 232 237 238 234 230 225 216 209 204 197 187 177 174 188 247 270 276 277
191 188 187 182 178 183 200 198 187 182 179 179 164 154 165 215 257 285 245 233 221 213 225 227 229 232 232 234 236 235 232 223 218 214 208 199 188 186 194 226 248 261 196
195 189 181 179 177 181 189 193 183 182 170 175 186 159 153 153 161 274 303 282 247 227 228 226 230 231 230 231 233 233 231 225 225 223 216 211 209 208 206 212 221 193 137
205 194 188 183 181 183 184 182 176 182 182 180 181 168 152 121 139 169 253 300 312 265 242 232 231 232 230 229 231 231 230 226 227 229 226 221 221 215 205 196 189 166 147
161 170 176 181 184 184 183 183 180 183 187 186 188 187 180 178 187 184 211 236 262 287 279 250 236 236 233 228 230 230 229 227 227 229 228 224 226 227 216 203 191 183 179
104 158 168 173 177 179 177 175 180 186 189 193 198 202 201 199 174 176 188 205 228 281 304 276 245 243 239 230 231 230 228 228 226 225 225 223 225 231 234 225 211 202 207
58 94 125 143 154 166 173 174 176 183 186 193 197 194 194 197 186 179 175 166 184 260 289 278 299 261 254 241 240 232 228 229 225 224 223 224 226 230 238 236 232 230 237
48 62 81 100 116 138 155 163 172 171 169 175 180 185 190 191 189 189 179 171 167 194 247 271 285 299 281 258 250 231 228 230 225 223 222 224 228 232 239 240 240 243 248
38 50 62 72 85 98 119 131 134 136 141 145 154 164 172 170 180 182 181 179 175 173 213 246 255 276 301 295 261 230 229 230 227 224 223 225 229 234 241 245 246 248 253
38 46 58 66 68 74 85 101 113 127 130 126 128 145 155 159 169 173 167 168 172 163 198 248 259 289 304 312 328 247 231 221 223 225 225 227 232 237 243 248 250 252 256
38 42 52 59 60 60 64 75 93 120 138 149 151 141 165 167 177 172 170 179 178 175 179 218 267 304 305 319 323 274 204 203 208 220 224 230 236 242 246 248 251 254 257
39 39 44 48 47 46 49 48 55 88 165 181 175 177 203 186 206 191 183 186 178 173 173 187 238 280 311 343 30 54 76 74 159 184 205 231 245 251 253 253 253 256 261
40 37 38 36 33 33 31 24 17 343 249 225 214 205 201 204 217 201 188 180 160 151 150 171 217 254 277 311 97 105 85 65 57 67 71 64 52 34 341 292 273 269 272
41 36 37 33 26 26 25 22 11 10 10 346 287 241 225 217 213 190 171 159 146 138 138 155 173 170 232 173 154 145 119 101 63 48 66 51 55 56 48 42 35 23 357
34 36 34 30 29 27 26 30 28 22 20 21 359 334 283 199 179 159 149 147 145 145 150 146 145 154 186 198 150 118 124 118 92 33 81 62 54 60 50 49 51 54 52
34 35 29 27 23 19 26 28 32 34 34 30 21 10 28 86 111 116 119 115 111 121 132 141 136 144 153 177 146 109 94 92 94 49 86 77 53 62 50 50 54 56 55
32 30 29 24 21 19 23 27 31 34 39 35 29 30 48 51 75 114 115 104 88 77 94 97 105 103 111 117 124 119 115 100 84 44 58 88 51 57 47 46 46 53 56
37 32 25 26 23 13 17 24 30 21 32 30 27 33 46 48 58 116 120 115 100 82 81 89 84 82 84 91 103 102 97 96 83 43 30 91 78 71 54 38 39 51 56
33 27 27 23 20 12 13 20 26 21 22 21 22 24 31 40 65 105 120 125 120 110 100 86 69 63 64 62 63 76 109 110 109 81 25 82 83 96 89 44 37 40 48
Height
1549 1550 1551 1552 1552 1553 1555 1556 1558 1559 1561 1562 1563 1564 1565 1566 1566 1566 1566 1565 1565 1564 1564 1564 1565 1566 1567 1568 1569 1570 1571 1572 1572 1573 1574 1575 1576 1577 1578 1579 1580 1580 1581
1547 1549 1550 1551 1551 1552 1554 1555 1557 1558 1560 1561 1562 1563 1564 1565 1566 1566 1565 1565 1565 1564 1564 1564 1564 1565 1566 1567 1568 1569 1570 1571 1572 1573 1574 1575 1576 1577 1578 1578 1579 1580 1580
1544 1546 1548 1549 1550 1551 1552 1554 1556 1557 1559 1560 1561 1562 1563 1564 1564 1565 1565 1565 1565 1564 1564 1564 1564 1564 1565 1566 1567 1567 1569 1570 1571 1572 1573 1574 1575 1576 1577 1578 1578 1579 1579
1541 1543 1545 1546 1548 1549 1550 1552 1554 1555 1557 1558 1559 1561 1562 1562 1563 1563 1564 1564 1564 1565 1564 1564 1564 1564 1564 1565 1566 1566 1567 1568 1570 1571 1572 1573 1574 1574 1575 1576 1577 1577 1578
1537 1539 1541 1543 1545 1547 1548 1550 1551 1553 1555 1556 1558 1559 1560 1560 1561 1562 1562 1563 1564 1564 1564 1564 1564 1564 1564 1564 1565 1565 1566 1567 1568 1569 1570 1571 1572 1573 1574 1574 1575 1575 1576
1532 1534 1536 1539 1541 1543 1544 1546 1548 1550 1552 1554 1555 1556 1557 1558 1559 1560 1561 1562 1562 1563 1564 1564 1564 1564 1564 1564 1564 1565 1565 1566 1567 1568 1569 1569 1570 1571 1572 1572 1573 1573 1574
1527 1529 1531 1533 1536 1538 1540 1542 1544 1546 1549 1551 1552 1553 1554 1555 1556 1557 1558 1559 1561 1561 1562 1563 1563 1563 1563 1564 1564 1564 1564 1565 1566 1566 1567 1568 1568 1569 1570 1570 1570 1571 1571
1521 1523 1525 1527 1530 1533 1535 1537 1539 1542 1545 1547 1549 1550 1551 1553 1552 1554 1555 1556 1558 1559 1560 1561 1562 1562 1563 1563 1563 1564 1564 1564 1565 1565 1566 1566 1566 1567 1567 1568 1568 1569 1569
1515 1517 1519 1521 1524 1526 1529 1532 1535 1537 1540 1543 1545 1547 1548 1548 1549 1550 1551 1552 1554 1556 1557 1558 1559 1560 1561 1562 1562 1563 1563 1564 1564 1564 1564 1565 1565 1565 1566 1566 1566 1567 1568
1508 1511 1513 1515 1518 1520 1523 1525 1528 1532 1535 1537 1540 1542 1544 1545 1546 1546 1548 1548 1550 1552 1554 1555 1557 1558 1559 1560 1561 1561 1562 1562 1563 1563 1563 1563 1564 1564 1564 1564 1565 1566 1566
1503 1505 1507 1510 1512 1515 1517 1520 1522 1526 1529 1532 1535 1537 1539 1541 1542 1544 1544 1545 1547 1548 1550 1552 1553 1554 1556 1557 1558 1559 1560 1561 1561 1562 1562 1562 1562 1563 1563 1563 1564 1565 1565
1498 1500 1503 1505 1508 1510 1512 1515 1517 1521 1523 1526 1529 1531 1534 1536 1537 1539 1540 1542 1543 1545 1547 1548 1550 1551 1552 1553 1555 1556 1557 1558 1559 1560 1560 1560 1561 1561 1561 1562 1563 1563 1564
1496 1497 1500 1502 1504 1506 1508 1510 1513 1516 1518 1520 1523 1525 1528 1530 1532 1534 1536 1537 1539 1541 1543 1544 1546 1547 1548 1549 1551 1552 1554 1555 1556 1557 1558 1558 1559 1559 1560 1560 1561 1562 1562
1494 1496 1497 1499 1500 1502 1504 1506 1509 1511 1513 1516 1518 1520 1523 1525 1527 1529 1532 1533 1535 1537 1538 1540 1541 1543 1544 1545 1546 1548 1550 1551 1553 1554 1555 1556 1556 1557 1557 1558 1559 1560 1560
1494 1495 1496 1497 1498 1499 1501 1503 1505 1507 1509 1511 1513 1516 1518 1520 1522 1525 1527 1529 1532 1533 1534 1536 1538 1538 1539 1540 1542 1544 1546 1548 1549 1551 1552 1553 1554 1554 1555 1555 1556 1557 1557
1495 1495 1496 1496 1497 1498 1499 1501 1502 1504 1505 1508 1510 1512 1514 1516 1519 1521 1524 1526 1528 1530 1531 1532 1534 1535 1535 1536 1538 1539 1542 1544 1546 1547 1549 1550 1551 1552 1552 1553 1553 1554 1554
1497 1497 1497 1497 1497 1498 1499 1500 1501 1503 1504 1506 1508 1510 1512 1514 1516 1519 1521 1523 1525 1527 1528 1530 1530 1531 1532 1533 1534 1536 1538 1540 1542 1544 1545 1547 1548 1549 1549 1550 1550 1551 1551
1500 1499 1499 1498 1498 1499 1500 1501 1502 1503 1504 1505 1507 1509 1510 1513 1515 1517 1518 1520 1522 1524 1526 1527 1528 1528 1529 1529 1531 1532 1535 1537 1539 1540 1542 1543 1545 1546 1546 1547 1547 1547 1548
1503 1502 1501 1501 1501 1501 1501 1502 1503 1503 1504 1505 1507 1508 1510 1511 1513 1515 1517 1518 1520 1522 1523 1524 1525 1525 1526 1527 1528 1529 1531 1533 1535 1537 1539 1540 1541 1542 1543 1543 1544 1544 1544
1505 1504 1503 1503 1503 1502 1503 1503 1504 1504 1504 1505 1506 1508 1509 1511 1512 1514 1516 1517 1519 1520 1521 1522 1523 1523 1524 1524 1525 1527 1529 1530 1532 1534 1535 1537 1538 1539 1539 1540 1540 1540 1540
1508 1507 1506 1505 1504 1504 1504 1503 1504 1504 1504 1505 1506 1507 1509 1510 1512 1513 1515 1516 1518 1518 1519 1520 1521 1521 1522 1523 1523 1525 1526 1527 1529 1531 1532 1534 1535 1535 1536 1536 1536 1536 1536
1511 1509 1508 1507 1506 1505 1504 1504 1503 1504 1504 1505 1505 1507 1508 1509 1511 1513 1515 1516 1517 1518 1519 1519 1520 1520 1521 1521 1522 1523 1524 1525 1527 1529 1530 1531 1532 1533 1533 1533 1533 1533 1533
1514 1512 1511 1509 1508 1506 1505 1504 1504 1503 1504 1504 1505 1506 1507 1509 1511 1513 1514 1516 1517 1518 1519 1520 1520 1520 1520 1521 1521 1522 1523 1524 1525 1527 1529 1530 1531 1532 1532 1532 1532 1532 1531
1517 1515 1513 1512 1510 1508 1506 1505 1504 1503 1503 1504 1504 1505 1507 1508 1510 1512 1514 1516 1517 1518 1519 1520 1520 1520 1521 1521 1522 1522 1523 1524 1525 1527 1529 1530 1531 1532 1533 1533 1533 1532 1532
1520 1518 1516 1514 1512 1510 1508 1506 1504 1504 1503 1503 1504 1505 1506 1508 1510 1512 1514 1516 1517 1519 1520 1521 1521 1522 1522 1522 1523 1523 1524 1525 1526 1528 1529 1530 1531 1532 1533 1534 1534 1533 1533
1523 1520 1518 1516 1513 1511 1509 1507 1505 1504 1503 1503 1504 1505 1506 1507 1509 1511 1514 1516 1518 1519 1521 1522 1523 1523 1524 1524 1524 1525 1525 1526 1527 1528 1530 1531 1532 1533 1534 1535 1534 1534 1533